Regional Weather Roundup
Issued by NWS Upton, NY

Current Version | Previous Version | Graphics & Text | Print | Product List | Glossary Off
Versions: 1 2 3 4 5 6 7 8 9 10 11 12 13 14 15 16 17 18 19 20 21 22 23 24 25 26 27 28 29 30 31 32 33 34 35 36 37 38 39 40 41 42 43 44 45 46 47 48 49 50

333
ASUS41 KOKX 161608
RWROKX

REGIONAL WEATHER ROUNDUP
NATIONAL WEATHER SERVICE NEW YORK NY
1100 AM EST MON JAN 16 2017

NOTE: "FAIR" INDICATES FEW OR NO CLOUDS BELOW 12,000 FEET WITH NO
SIGNIFICANT WEATHER AND/OR OBSTRUCTIONS TO VISIBILITY.

NYZ071-072-176-178-NJZ106-104-161700-
NEW YORK CITY METRO AREA

CITY           SKY/WX    TMP DP  RH WIND       PRES   REMARKS
Central Park   SUNNY     36  21  54 VRB3      30.48F
Wall St Helipt SUNNY     36  24  62 VRB3      30.48F
Bronx Bot Gard NOT AVBL
LaGuardia APRT PTSUNNY   38  21  50 CALM      30.46F
Kennedy INTL   MOSUNNY   37  18  46 SW5       30.48F WCI  33
Breezy Point     N/A     34 N/A N/A S3          N/A
Newark/Liberty MOSUNNY   37  22  54 SW5       30.47F WCI  33
Teterboro      SUNNY     35  21  56 CALM      30.46F
$$

NYZ177-179-078>081-161700-
LONG ISLAND NEW YORK

CITY           SKY/WX    TMP DP  RH WIND       PRES   REMARKS
Jones Beach      N/A     34 N/A N/A W3          N/A
Matinecock PT  NOT AVBL
Farmingdale    SUNNY     36  19  50 W6        30.46F WCI  31
MacArthur/ISP  PTSUNNY   37  20  50 W7        30.45F WCI  32
Shirley        SUNNY     36  21  54 SW5       30.46F WCI  32
Westhampton    SUNNY     38  20  48 SW8       30.47S WCI  32
Southampton    NOT AVBL
Bridgehampton  NOT AVBL
East Hampton     N/A     38  19  48 SW5       30.44F WCI  34
Montauk          N/A     39  21  48 SW6       30.45F WCI  35
$$

NYZ052-065-067-161700-
HUDSON VALLEY

CITY           SKY/WX    TMP DP  RH WIND       PRES   REMARKS
White Plains   SUNNY     35  18  49 W5        30.43F WCI  31
Newburgh       SUNNY     30  23  74 SW7       30.44F WCI  23
Montgomery     SUNNY     32  21  64 VRB7      30.42F WCI  26
Poughkeepsie   SUNNY     31  19  61 SW8       30.44F WCI  23
Albany         MOSUNNY   29  17  61 S8        30.41F WCI  21
$$

NJZ001-105-106-008-010-013-015-019>022-104-161700-
NEW JERSEY

CITY           SKY/WX    TMP DP  RH WIND       PRES   REMARKS
Newark/Liberty MOSUNNY   37  22  54 SW5       30.47F WCI  33
Teterboro      SUNNY     35  21  56 CALM      30.46F
Caldwell       SUNNY     32  20  61 VRB3      30.47F
Somerville     SUNNY     34  21  59 CALM      30.45F
Linden           N/A     36  21  56 CALM      30.47F
Sussex         SUNNY     31  21  66 S6        30.43F WCI  25
Andover          N/A     31  22  69 CALM      30.44F
Trenton        SUNNY     35  22  58 CALM      30.47S
Millville      SUNNY     38  23  55 CALM      30.48F
Atlantic City  SUNNY     39  23  52 W3        30.48F
Wrightstown    SUNNY     37  22  54 CALM      30.45S
Toms River     SUNNY     37  23  56 CALM      30.48F
Belmar         SUNNY     38  24  57 CALM      30.47F
$$

PAZ047>061-062-071-161700-
EASTERN PENNSYLVANIA

CITY           SKY/WX    TMP DP  RH WIND       PRES   REMARKS
Philadelphia   PTSUNNY   37  22  54 CALM      30.49F
Allentown      SUNNY     31  21  66 CALM      30.46F
Scranton       SUNNY     26  18  71 CALM      30.41F
$$

CTZ002-004>006-009-010-012-RIZ004-006-007-MAZ004-011-015-161700-
SOUTHERN NEW ENGLAND
 IN CT

CITY           SKY/WX    TMP DP  RH WIND       PRES   REMARKS
Bradley INTL   PTSUNNY   33  19  56 SW7       30.42F WCI  27
Hartford       SUNNY     32  21  64 S5        30.44F WCI  27
Danbury        SUNNY     33  19  56 SW8       30.43F WCI  26
Wtrbury/Oxford MOSUNNY   30  16  55 W7        30.42F WCI  23
Bridgeport     SUNNY     34  20  56 SW6       30.46F WCI  29
Meriden        SUNNY     37  19  48 VRB6      30.44F WCI  32
New Haven      MOSUNNY   34  21  59 VRB5      30.45F WCI  30
Chester          N/A     36  14  41 VRB7      30.42F WCI  30
Groton         SUNNY     35  23  61 S9        30.43F WCI  28
Wilimantic     SUNNY     32  21  64 CALM      30.43F

 IN RI

CITY           SKY/WX    TMP DP  RH WIND       PRES   REMARKS
Providence     MOSUNNY   37  20  50 S5        30.42F WCI  33
Block Island   NOT AVBL
Westerly       SUNNY     36  23  59 SW8       30.44F WCI  30
 IN MA

CITY           SKY/WX    TMP DP  RH WIND       PRES   REMARKS
Boston         MOSUNNY   36  17  46 SW12      30.39F WCI  28
Worcester      SUNNY     29  13  51 W18       30.34F WCI  16
Westfield      SUNNY     32  18  56 S7        30.40F WCI  26
Provincetown   SUNNY     38  21  50 SW12      30.41F WCI  30
Nantucket      SUNNY     39  21  48 S10       30.43F WCI  32
$$

ANZ330-335-338-340-345-350-353-355-161700-
COASTAL MARINE OBSERVATIONS


STATION/POSITION TIME  SKY/WX   TEMP    WIND        PRES    VSBY  WAVE
                                AIR SEA DIR/SP/G                  HT/PER
                 (UTC)          (F)     (DEG/KT/KT) (MB)    (MI)  (FT/S)
NY HARB ENTRANCE 1450            36 44  360/  2/  4 1032.0          1/11
20 S FIRE ISLAND 1550            38 45  320/  2/  4 1031.3          2/ 9
GREAT SOUTH BAY  NOT AVBL
23 SSW MONTAUK P 1450            39 47  240/  4/  6 1031.7          2/ 9
15 E BARNEGAT LI 1530               46                N/A           2/11
HUDSON CANYON    1450            45 52              1031.4          2/11
KINGS POINT      1542            33 38              1031.7
EXECUTION ROCKS  1545            35     200/  2/  2   N/A
CENTRAL LI SOUND 1530            33     290/  4/  8   N/A           0
EASTERN LI SOUND NOT AVBL
ROBBINS REEF     1542            34      CALM  /  1 1032.2
$$


>>>>>>>>>>>>>>>>>>>>>>>>>>>> KEY <<<<<<<<<<<<<<<<<<<<<<<<<<<
>                                                          <
>     SKY/WX - Sky Condition/Present Weather               <
>     TMP    - Temperature in Fahrenheit                   <
>     DP     - Dew Point in Fahrenheit                     <
>     RH     - Relative Humidity in Percent                <
>     WIND   - Direction (from) and Speed in MPH           <
>     PRES   - Mean Sea Level Pressure (inches of Hg)      <
>     WCI    - Wind Chill Index                            <
>     VSB    - VISIBILITY IN MILES                         <
>     HX     - HEAT INDEX                                  <
>     TC     - TEMPERATURE IN CELSIUS                      <
>     VRB    - VARIABLE WIND DIRECTION                     <
>                                                          <
>>>>>>>>>>>>>>>>>>>>>>>>>>>> KEY <<<<<<<<<<<<<<<<<<<<<<<<<<<




USA.gov is the U.S. government's official web portal to all federal, state and local government web resources and services.